Location: Prague
(50.0830°N, 14.4670°E)
Time: 11:54:57
(UTC+01:00)

AO-7 - Pass Details

Date: 17 December 2021
Orbit: 1440 x 1459 km, 101.9° (Epoch: 29 January)

Event Time Altitude Azimuth Distance (km) Brightness Sun altitude
Rises 03:00:11 0° 25° (NNE) 4,555 ? -45.8°
Reaches altitude 10° 03:03:40 10° 38° (NE) 3,575 ? -45.3°
Maximum altitude 03:10:19 26° 91° (E) 2,563 ? -44.3°
Drops below altitude 10° 03:16:56 10° 144° (SE) 3,570 ? -43.2°
Sets 03:20:22 0° 157° (SSE) 4,546 ? -42.7°
